Starlink 32917

operational
NORAD ID: 62921 Int'l Des: 2025-027 Owner: SPXS Country: US Constellation: starlink
LEOCIRCULAR

About Starlink 32917

Description loading...

Live Position

Loading 3D Globe...

Upcoming Passes

Altitude History

Altitude vs Time

uPlot chart will show altitude changes over time

Two-Line Element Set

1 62921U 25027Q 25303.25655351 .00030070 00000-0 10973-2 0 9993
2 62921 42.9969 145.5340 0001347 282.1050 77.9651 15.27596486 41593
Epoch: Oct 30, 2025 • Age: 11 hours

Current Status

Altitude 482.0 km
Velocity 7.63 km/s
Sub-Earth Point 13.41°N, 140.04°W
Launch Date Feb 8, 2025
Age 0.7 years
Type internet

Technical Details

Classification Payload
Mass 730.00 kg
Dry Mass 700.00 kg
Total Mass 730.00 kg
Length 0.30 m
Diameter 4.10 m
Span 29.00 m
Shape Box + pan
Manufacturer SPXS
Bus Type Starlink V2M
Phase Status In Orbit
Owner/State SPXS/US

Large Constellations

Loading constellations...